Location: Sternwarte-Kraichtal
(49.1689°N, 8.6996°E)
Time: 18:59:44
(UTC+01:00)

ISS - Visible Passes

Search period start: 27 January 2021 00:00
Search period end: 06 February 2021 00:00
Orbit: 418 x 421 km, 51.6° (Epoch: 28 January)

Date Brightness Start Highest point End Pass type
(mag) Time Alt. Az. Time Alt. Az. Time Alt. Az.
27 Jan -3.6 17:59:48 10° W 18:03:11 67° NNW 18:06:14 12° ENE visible
27 Jan -2.4 19:36:54 10° WNW 19:39:13 38° NW 19:39:13 38° NW visible
28 Jan -3.4 18:49:31 10° WNW 18:52:51 54° N 18:53:50 37° ENE visible
28 Jan -0.4 20:26:25 10° WNW 20:26:48 13° WNW 20:26:48 13° WNW visible
29 Jan -3.4 18:02:05 10° W 18:05:26 54° N 18:08:28 12° ENE visible
29 Jan -2.6 19:39:04 10° WNW 19:41:27 42° WNW 19:41:27 42° WNW visible
30 Jan -3.7 18:51:42 10° WNW 18:55:04 66° NNE 18:56:07 39° E visible
30 Jan -0.4 20:28:37 10° WNW 20:29:06 13° W 20:29:06 13° W visible
31 Jan -3.5 18:04:18 10° WNW 18:07:39 57° N 18:10:50 11° E visible
31 Jan -2.7 19:41:11 10° WNW 19:43:49 45° WSW 19:43:49 45° WSW visible
01 Feb -3.7 18:53:47 10° WNW 18:57:10 79° SSW 18:58:37 32° ESE visible
01 Feb -0.4 20:31:09 10° W 20:31:37 12° W 20:31:37 12° W visible
02 Feb -3.8 18:06:24 10° WNW 18:09:47 81° NNE 18:13:10 10° ESE visible
02 Feb -2.0 19:43:27 10° W 19:46:22 27° SW 19:46:30 27° SSW visible
03 Feb -2.5 18:55:54 10° WNW 18:59:06 39° SSW 19:01:32 15° SSE visible
04 Feb -3.1 18:08:25 10° WNW 18:11:45 56° SSW 18:15:04 10° SE visible
04 Feb -0.8 19:46:34 10° WSW 19:47:59 12° SW 19:49:25 10° SSW visible
05 Feb -1.0 18:58:22 10° W 19:00:47 18° SW 19:03:11 10° S visible
